This is the latest recevied weather packets stored in our database for station/object AC5JC-1. If no packets are shown the sender has not sent any weather packets the latest 10 day(s).
| Time | Temp. | Humidity | Pressure | Rain* | Wind** | Luminosity | Snow |
|---|---|---|---|---|---|---|---|
| 1777850469 | 26.11° C | 39% | 1015.7 hPa | 0 mm | - | 235 W/m² | - |
| 1777850150 | 26.11° C | 40% | 1015.8 hPa | 0 mm | - | 213 W/m² | - |
| 1777849574 | 26.67° C | 40% | 1015.9 hPa | 0 mm | - | 260 W/m² | - |
| 1777845926 | 27.22° C | 37% | 1016.4 hPa | 0 mm | - | 464 W/m² | - |
| 1777842054 | 27.78° C | 36% | 1017.4 hPa | 0 mm | - | 568 W/m² | - |
| 1777841478 | 28.33° C | 34% | 1017.6 hPa | 0 mm | - | 556 W/m² | - |
| 1777840236 | 28.33° C | 36% | 1017.9 hPa | 0 mm | - | 605 W/m² | - |
| 1777839635 | 27.78° C | 36% | 1018.1 hPa | 0 mm | - | 685 W/m² | - |
| 1777839356 | 27.78° C | 36% | 1018.2 hPa | 0 mm | - | 696 W/m² | - |
| 1777839035 | 28.33° C | 37% | 1018.3 hPa | 0 mm | - | 690 W/m² | - |
| 1777836935 | 27.78° C | 38% | 1018.8 hPa | 0 mm | - | 608 W/m² | - |
| 1777835462 | 27.22° C | 39% | 1019.2 hPa | 0 mm | - | 501 W/m² | - |
| 1777833670 | 27.22° C | 41% | 1019.8 hPa | 0 mm | - | 661 W/m² | - |
| 1777832454 | 26.67° C | 44% | 1019.9 hPa | 0 mm | - | 664 W/m² | - |
| 1777832136 | 26.67° C | 41% | 1020.2 hPa | 0 mm | - | 679 W/m² | - |
| 1777831002 | 26.67° C | 45% | 1020.5 hPa | 0 mm | - | 694 W/m² | - |
| 1777828231 | 25.56° C | 49% | 1021.1 hPa | 0 mm | - | 702 W/m² | - |
| 1777826435 | 25.56° C | 48% | 1021.6 hPa | 0 mm | - | 722 W/m² | - |
| 1777824035 | 24.44° C | 51% | 1021.7 hPa | 0 mm | - | 659 W/m² | - |
| 1777823735 | 23.89° C | 50% | 1021.7 hPa | 0 mm | - | 647 W/m² | - |
| 1777823135 | 23.33° C | 52% | 1021.8 hPa | 0 mm | - | 653 W/m² | - |
| 1777820470 | 22.22° C | 59% | 1021.7 hPa | 0 mm | - | 497 W/m² | - |
| 1777819536 | 21.11° C | 59% | 1021.6 hPa | 0 mm | - | 436 W/m² | - |
| 1777818935 | 20.56° C | 62% | 1021.6 hPa | 0 mm | - | 376 W/m² | - |
| 1777816835 | 18.89° C | 69% | 1021.7 hPa | 0 mm | - | 243 W/m² | - |
* Rain latest hour (hover to see other rain measurements)
** Current wind speed in m/s (hover to see current wind gust speed)